Wind_Speed
14 14 16 17 16 18 17 17 17 17 18 19 18 18 20 19 17 13 11 10 9 10 11 12 14 16 20 21 22 24 17 19 21 21 18 17 13 21 24 23 23 22 24
12 14 16 19 20 21 23 20 19 18 19 20 21 21 23 23 22 20 17 16 17 15 14 15 16 17 20 18 20 24 17 14 19 22 21 19 17 14 15 16 17 20 23
11 11 13 17 18 21 20 20 20 20 20 22 25 24 24 25 24 23 22 21 21 21 21 21 20 19 21 21 20 23 21 17 22 27 21 20 21 23 22 22 20 20 22
15 14 14 15 16 15 20 22 22 23 22 23 26 27 27 27 26 26 26 25 25 25 26 25 27 26 24 26 26 27 26 32 30 25 22 21 21 24 26 26 24 21 23
21 18 18 18 19 19 20 23 25 26 26 26 27 29 32 31 30 30 30 28 28 27 26 28 30 29 29 28 29 33 29 32 27 20 20 25 23 23 25 27 27 24 23
24 22 23 22 21 23 30 29 27 27 29 31 32 32 33 35 36 36 35 35 34 30 30 30 32 34 34 34 33 26 32 33 21 27 26 28 30 25 25 28 29 28 25
26 25 28 27 29 26 26 35 36 30 37 37 34 33 35 39 44 45 41 38 39 37 33 33 35 36 35 37 37 30 35 36 29 27 36 32 30 24 24 29 31 31 28
28 28 28 30 28 31 32 31 27 33 34 35 34 31 29 36 41 50 44 41 42 42 38 36 36 34 35 38 39 36 36 36 37 36 32 32 29 22 23 25 30 30 29
28 29 31 33 35 35 37 36 33 34 33 34 36 36 37 40 38 26 37 42 43 40 39 33 35 36 36 37 39 38 38 37 39 29 24 20 21 24 22 23 27 28 27
28 30 31 33 36 37 38 39 39 39 39 40 38 39 40 40 38 30 33 29 37 36 32 30 33 37 38 39 40 42 40 39 35 18 19 22 23 23 21 22 25 24 25
24 26 28 31 33 36 37 38 39 38 39 40 40 38 35 38 39 35 35 33 33 28 33 33 33 35 39 43 39 41 41 41 35 31 22 25 22 21 21 21 24 24 26
16 19 21 24 28 31 34 35 36 37 38 39 41 41 39 36 35 34 33 33 32 33 35 36 37 38 40 42 44 42 41 41 33 27 22 21 21 20 19 21 24 26 24
17 25 25 24 25 26 28 31 32 33 33 32 33 35 36 35 34 32 32 31 32 33 36 37 37 39 40 40 39 36 40 36 27 27 26 23 20 19 20 25 24 26 26
17 14 14 17 19 21 24 27 29 29 29 29 28 27 31 31 29 30 30 29 28 30 32 34 34 32 32 35 21 22 21 20 25 26 21 20 21 22 23 25 27 27 28
16 15 15 16 14 16 19 25 26 24 23 26 27 24 23 24 25 25 27 28 28 29 31 29 29 29 29 24 21 21 21 22 23 23 20 21 21 23 25 23 29 27 28
14 14 17 20 21 24 25 21 13 12 15 21 21 21 20 20 21 23 25 26 27 27 29 30 26 28 21 15 14 16 19 21 22 20 20 20 21 23 23 25 25 33 28
13 16 18 18 20 21 22 20 18 17 20 21 15 15 16 17 19 19 19 21 23 28 37 19 14 15 17 18 16 18 17 18 17 20 19 18 21 24 23 19 25 27 17
13 15 15 15 18 20 18 21 19 19 16 15 9 12 12 13 13 14 16 20 26 22 10 9 11 13 14 14 15 15 16 16 16 17 20 20 20 21 19 21 23 32 22
13 13 15 16 18 18 19 20 22 20 16 18 15 10 6 8 7 8 9 12 10 3 3 8 12 13 13 14 15 16 16 17 17 18 18 18 18 17 18 18 28 27 22
11 13 15 16 17 18 18 17 17 17 17 15 18 15 7 5 4 5 7 9 8 9 9 12 14 16 16 16 16 17 18 17 16 15 14 14 15 17 18 17 17 19 19
11 13 14 15 15 16 17 17 17 16 13 13 12 12 15 13 9 7 8 10 11 12 13 15 16 18 18 17 17 18 15 13 11 10 14 19 20 17 15 16 19 17 15
13 13 14 14 15 15 15 16 16 17 12 8 12 14 12 12 13 13 12 14 16 18 18 18 16 15 15 15 16 18 16 13 12 13 15 19 17 17 18 15 16 17 14
16 16 16 17 16 16 16 16 15 14 13 10 10 12 13 13 13 14 15 16 17 19 20 17 14 14 16 17 18 18 18 16 14 15 14 15 12 11 12 15 16 12 5
15 16 16 16 16 15 16 17 16 15 14 14 14 15 15 15 16 17 18 19 19 19 19 19 18 17 18 19 20 19 17 16 14 13 14 15 14 14 15 15 10 4 4
16 17 17 16 17 18 20 19 18 18 17 17 17 18 18 18 17 18 20 21 22 21 20 20 19 19 20 20 19 20 18 16 13 13 13 12 13 14 13 9 5 5 6
17 18 19 19 18 18 19 19 19 20 20 20 21 21 21 21 21 21 21 22 22 21 21 22 21 20 20 19 18 19 18 14 13 12 10 11 13 12 9 6 5 5 6
Wind_Direction
264 255 253 257 252 255 257 258 259 251 245 242 247 251 252 255 253 259 269 271 265 267 273 283 292 302 305 327 326 351 339 341 332 331 336 340 288 270 273 280 291 293 291
270 270 266 264 264 267 271 262 257 254 252 249 247 248 247 250 254 257 258 264 267 264 267 274 283 296 303 311 325 338 326 319 332 325 325 325 316 299 290 291 292 295 300
249 258 268 268 269 270 269 264 261 259 250 246 243 246 248 251 255 257 258 264 268 271 271 275 281 285 293 302 305 315 334 329 319 316 307 307 307 304 300 296 290 291 297
238 246 256 261 262 264 273 269 259 256 255 254 254 255 248 244 249 251 251 253 258 266 272 277 281 285 289 292 297 297 305 306 312 302 295 291 289 291 293 291 289 290 294
258 255 264 271 273 270 263 262 264 266 263 260 260 261 262 255 246 248 255 255 259 262 267 272 275 279 281 284 288 295 294 316 310 293 298 297 289 286 287 289 290 291 295
267 267 275 270 276 293 267 258 259 261 265 266 261 259 262 263 256 254 255 261 264 267 271 273 278 280 280 283 280 296 300 321 292 297 300 301 294 287 288 288 294 294 296
276 274 272 277 275 283 280 282 256 253 261 259 258 257 262 263 263 261 258 260 265 266 265 271 274 281 285 281 293 292 296 303 298 290 291 283 284 289 291 289 290 294 297
271 276 281 282 279 283 282 285 291 267 279 277 257 268 263 281 262 263 258 260 264 269 269 269 272 276 280 280 285 287 297 302 300 293 290 285 282 294 294 288 288 293 299
261 263 266 268 271 271 274 279 276 273 271 268 270 274 275 272 276 265 257 258 258 259 265 274 282 284 285 286 288 294 297 301 300 284 273 270 298 301 299 296 294 295 298
268 267 267 268 271 274 274 273 276 277 278 280 274 271 268 269 274 273 279 272 253 259 267 271 279 283 282 280 282 288 296 297 303 273 273 276 297 299 300 299 296 294 299
267 267 266 267 266 268 270 270 270 269 270 272 273 273 269 269 269 270 274 273 250 258 268 274 277 279 281 279 279 276 283 289 294 287 276 294 296 299 303 299 295 299 301
283 281 278 275 272 271 272 272 273 274 272 267 268 268 268 265 266 269 269 271 272 279 280 280 284 283 282 284 280 277 281 282 286 288 296 298 302 300 296 290 293 296 294
311 305 289 283 287 280 276 274 274 274 275 274 270 270 272 270 266 266 269 273 280 283 283 282 284 284 283 286 282 273 276 278 286 294 293 294 294 295 290 289 290 293 295
329 341 336 311 302 298 289 281 277 277 283 288 286 273 267 268 269 264 266 268 270 271 273 275 277 277 278 288 293 286 275 282 292 288 292 297 297 293 287 287 291 288 288
336 337 346 335 329 322 312 304 288 282 285 293 292 280 266 265 265 260 256 261 264 268 272 271 271 275 283 287 287 292 290 289 285 293 300 300 292 288 289 286 289 292 297
345 339 341 338 342 339 342 327 324 312 297 290 288 280 271 267 258 252 254 260 267 277 282 278 278 280 289 296 302 303 299 296 292 291 291 290 289 288 291 291 283 281 289
349 343 350 349 354 347 349 351 337 328 316 302 272 287 281 268 267 270 267 273 275 276 279 255 274 284 291 291 284 281 284 286 285 287 289 292 277 291 299 291 286 299 307
346 343 347 351 348 345 348 350 342 325 329 332 300 281 272 282 281 289 287 277 282 268 262 292 299 294 293 295 292 290 288 288 291 289 290 294 290 289 285 291 282 304 310
347 343 341 350 350 352 354 349 354 354 343 344 350 317 269 250 276 271 280 272 238 147 280 293 303 301 298 298 301 300 300 299 297 291 288 291 287 289 287 281 281 296 302
349 344 341 345 349 355 2 2 5 6 12 16 21 20 6 316 331 329 5 23 356 335 333 328 322 318 313 311 309 306 300 294 287 286 289 296 293 287 286 287 291 300 301
344 342 340 340 345 351 355 1 5 2 8 9 8 10 11 12 5 346 354 348 346 339 329 322 319 320 320 319 320 320 312 293 289 294 301 313 305 283 291 291 295 303 298
332 332 332 334 337 342 340 341 350 360 6 7 360 358 359 357 350 344 338 335 326 319 314 311 313 319 322 325 327 328 323 312 310 303 306 311 310 295 296 296 297 300 298
333 327 326 329 330 333 333 336 341 347 353 345 349 352 354 350 344 334 324 317 321 325 324 317 315 323 329 333 332 326 320 312 295 291 299 309 311 308 305 300 300 301 271
317 321 318 315 316 322 330 334 333 331 331 334 328 328 328 333 332 326 324 320 318 320 322 321 318 317 318 323 326 325 320 317 306 295 291 295 300 306 302 302 303 279 253
304 306 309 309 305 307 314 320 322 327 326 323 323 323 323 323 317 314 317 319 320 319 311 306 306 306 308 312 317 324 321 315 312 307 293 290 298 302 304 299 286 274 269
305 309 310 309 306 304 304 307 310 311 313 316 316 314 316 317 317 316 313 313 316 313 309 302 295 298 302 306 309 316 317 313 303 304 307 309 306 308 297 278 262 271 282
Height
5941 5941 5941 5940 5939 5938 5938 5938 5939 5938 5938 5939 5941 5941 5941 5941 5941 5941 5941 5941 5941 5942 5941 5940 5940 5939 5935 5934 5932 5928 5924 5921 5918 5917 5913 5911 5909 5909 5908 5907 5906 5905 5904
5937 5937 5937 5938 5938 5937 5936 5936 5937 5936 5936 5937 5937 5936 5936 5936 5936 5937 5936 5937 5937 5937 5936 5935 5934 5935 5931 5930 5928 5926 5922 5918 5916 5915 5912 5911 5910 5908 5907 5905 5902 5901 5900
5933 5932 5933 5934 5934 5934 5934 5933 5933 5933 5931 5931 5931 5931 5932 5931 5931 5931 5932 5933 5932 5933 5932 5931 5931 5931 5928 5927 5925 5921 5920 5918 5915 5913 5909 5907 5907 5905 5904 5902 5899 5896 5894
5929 5928 5929 5929 5929 5929 5930 5930 5928 5926 5926 5926 5927 5928 5926 5924 5925 5925 5925 5926 5926 5926 5926 5926 5925 5925 5923 5921 5919 5917 5915 5912 5908 5906 5904 5902 5901 5901 5900 5897 5895 5891 5889
5926 5925 5924 5924 5923 5924 5923 5923 5923 5923 5922 5921 5921 5923 5923 5922 5918 5918 5919 5919 5918 5918 5918 5919 5918 5917 5915 5912 5911 5908 5906 5905 5902 5899 5898 5897 5895 5893 5893 5892 5890 5887 5883
5920 5920 5919 5918 5918 5917 5915 5915 5914 5914 5916 5915 5914 5915 5916 5918 5915 5911 5911 5912 5912 5911 5911 5910 5911 5910 5908 5907 5904 5899 5900 5899 5897 5894 5891 5891 5889 5886 5886 5885 5884 5880 5876
5913 5914 5913 5912 5911 5911 5909 5907 5903 5903 5905 5905 5907 5908 5909 5910 5908 5905 5904 5903 5905 5903 5901 5900 5898 5900 5901 5900 5897 5895 5894 5892 5890 5887 5884 5882 5880 5880 5879 5877 5877 5875 5871
5906 5906 5906 5905 5904 5903 5901 5899 5895 5896 5894 5895 5897 5900 5900 5899 5898 5897 5893 5894 5896 5896 5896 5893 5891 5891 5892 5890 5889 5887 5886 5883 5880 5877 5874 5873 5871 5871 5869 5869 5869 5869 5867
5899 5898 5897 5897 5896 5895 5894 5892 5892 5892 5890 5889 5890 5890 5889 5889 5888 5883 5884 5883 5886 5887 5885 5885 5885 5886 5884 5881 5877 5876 5874 5872 5869 5865 5865 5863 5863 5862 5862 5862 5863 5862 5860
5893 5892 5891 5890 5888 5887 5886 5885 5884 5883 5881 5878 5877 5880 5880 5878 5876 5874 5873 5874 5876 5879 5877 5875 5876 5876 5875 5874 5871 5869 5867 5865 5863 5859 5856 5856 5855 5854 5855 5855 5856 5855 5852
5885 5884 5883 5882 5880 5879 5876 5875 5873 5872 5872 5870 5869 5869 5870 5870 5868 5868 5868 5867 5867 5868 5868 5867 5867 5866 5866 5865 5862 5862 5861 5859 5857 5853 5850 5849 5848 5848 5848 5848 5849 5848 5845
5879 5877 5875 5873 5871 5868 5866 5864 5863 5862 5861 5860 5858 5858 5857 5858 5857 5856 5856 5857 5857 5857 5857 5858 5857 5855 5854 5852 5851 5851 5851 5850 5848 5845 5843 5842 5842 5842 5840 5840 5841 5839 5837
5874 5870 5866 5864 5861 5858 5856 5853 5851 5850 5849 5849 5848 5846 5844 5844 5845 5847 5847 5847 5848 5849 5850 5849 5848 5846 5844 5842 5840 5840 5840 5841 5841 5839 5838 5838 5837 5836 5834 5834 5833 5831 5829
5870 5866 5862 5858 5855 5852 5849 5846 5844 5842 5841 5839 5837 5835 5834 5834 5835 5836 5839 5841 5842 5842 5842 5841 5840 5837 5836 5835 5830 5831 5831 5832 5834 5835 5833 5831 5829 5828 5828 5827 5826 5824 5822
5866 5862 5858 5855 5852 5847 5842 5836 5832 5831 5830 5829 5827 5826 5826 5826 5827 5829 5831 5832 5832 5832 5832 5831 5830 5827 5828 5827 5826 5827 5827 5829 5829 5827 5824 5822 5823 5822 5822 5820 5818 5816 5814
5863 5860 5856 5851 5846 5841 5835 5830 5826 5825 5823 5820 5819 5819 5818 5820 5819 5820 5822 5823 5824 5824 5823 5822 5822 5822 5821 5821 5820 5820 5821 5821 5820 5818 5817 5816 5816 5816 5814 5813 5810 5808 5807
5860 5857 5853 5849 5845 5840 5835 5830 5826 5823 5819 5814 5812 5811 5811 5813 5814 5815 5816 5816 5816 5816 5815 5813 5817 5817 5816 5815 5816 5815 5814 5814 5812 5811 5811 5810 5811 5807 5807 5804 5803 5802 5800
5859 5855 5852 5848 5843 5839 5835 5831 5827 5822 5818 5813 5810 5809 5808 5808 5809 5810 5811 5810 5810 5810 5810 5812 5813 5814 5813 5812 5811 5810 5810 5808 5807 5806 5804 5805 5803 5802 5801 5799 5798 5796 5795
5858 5854 5851 5847 5843 5839 5835 5830 5827 5822 5818 5813 5809 5806 5806 5806 5806 5806 5805 5805 5804 5805 5809 5811 5811 5810 5809 5808 5807 5805 5803 5802 5801 5800 5799 5798 5798 5796 5795 5793 5793 5791 5789
5856 5853 5849 5845 5842 5838 5835 5831 5827 5823 5820 5816 5812 5808 5807 5807 5807 5806 5806 5806 5807 5808 5808 5808 5807 5807 5805 5803 5801 5800 5798 5796 5795 5795 5794 5793 5791 5790 5790 5788 5787 5785 5783
5855 5851 5848 5845 5842 5838 5835 5832 5828 5824 5821 5818 5816 5813 5812 5811 5811 5810 5809 5808 5808 5807 5806 5805 5804 5802 5800 5798 5797 5794 5793 5791 5790 5790 5788 5787 5784 5784 5784 5783 5781 5779 5778
5853 5850 5847 5845 5842 5838 5836 5833 5829 5825 5822 5819 5818 5816 5814 5814 5812 5811 5810 5808 5807 5806 5804 5802 5800 5799 5797 5795 5793 5790 5788 5786 5785 5784 5783 5781 5779 5778 5778 5777 5776 5775 5773
5850 5848 5846 5843 5840 5838 5835 5832 5829 5825 5823 5820 5818 5817 5814 5812 5810 5809 5808 5806 5804 5802 5800 5798 5796 5794 5793 5791 5788 5786 5784 5782 5780 5779 5778 5776 5776 5775 5773 5772 5771 5769 5768
5848 5846 5843 5841 5838 5836 5833 5830 5827 5824 5822 5820 5817 5815 5812 5811 5809 5807 5805 5802 5800 5798 5796 5793 5791 5790 5789 5787 5785 5783 5780 5777 5775 5773 5773 5772 5772 5770 5769 5768 5766 5766 5765
5845 5842 5839 5837 5835 5832 5830 5827 5825 5822 5819 5817 5814 5812 5810 5808 5806 5804 5801 5798 5796 5793 5791 5789 5788 5786 5785 5783 5781 5778 5776 5774 5772 5770 5769 5769 5768 5766 5764 5764 5763 5764 5763
5840 5838 5835 5832 5830 5827 5825 5823 5821 5819 5816 5814 5811 5808 5806 5804 5802 5800 5798 5795 5792 5789 5786 5784 5782 5782 5780 5778 5777 5775 5773 5771 5769 5767 5766 5764 5763 5761 5760 5761 5761 5761 5762